Flag for Australia Weather past 2 weeks in Mosman, New South Wales, Australia

Now
78 °F

Warm.


Feels Like: 80 °F
Forecast: 71 / 77 °F
Wind: N/A

Location: Sydney Regional Office

Current Time: Dec 22, 2014 at 11:52:43 AM

Latest Report: Dec 22, 2014 at 10:00 AM


Visibility: N/A

Pressure: 30.03 "Hg

Humidity: 64%

Dew point: 65 °F

Location of MosmanLocation

Historic Weather in Mosman — Graph

°F

Mosman temperature yesterday

Maximum temperature yesterday: 78 °F (at 12:00 PM)
Minimum temperature yesterday: 62 °F (at 6:00 AM)
Average temperature yesterday: 71 °F

Past Weeks' High & Low Weather Summary

 TemperatureHumidityPressure
High89 °F (Dec 8, 1:00 PM)93% (Dec 10, 9:00 PM)30.11 "Hg (Dec 10, 9:00 PM)
Low60 °F (Dec 14, 6:00 AM)36% (Dec 8, 1:00 PM)29.44 "Hg (Dec 16, 6:00 PM)
Average70 °F69%29.87 "Hg
* Reported Dec 7 10:00 AM — Dec 22 10:00 AM, Mosman, Weather by CustomWeather, © 2014

Note: Actual official high and low records may vary slightly from our data, if they occured in-between our weather recording intervals... More about our weather records

Advertising

Mosman weather history for previous 24 hours

 ConditionsComfort  
Time TempWeatherWind HumidityBarometerVisibility
10:00 AM
Dec 22
78 °FWarm.N/A64%30.03 "HgN/A
9:00 AM77 °FMild.N/A63%30.03 "HgN/A
7:00 AM70 °FMild.N/A83%30.01 "HgN/A
6:00 AM69 °FMild.N/A85%29.98 "HgN/A
4:00 AM69 °FMild.N/A85%29.97 "HgN/A
3:00 AM70 °FMild.N/A84%29.98 "HgN/A
1:00 AM71 °FMild.N/A82%30.00 "HgN/A
12:00 AM71 °FMild.N/A81%30.01 "HgN/A
10:00 PM
Dec 21
72 °FMild.N/A78%30.02 "HgN/A
9:00 PM72 °FMild.N/A80%30.00 "HgN/A
7:00 PM73 °FMild.N/A73%29.97 "HgN/A
6:00 PM74 °FMild.N/A68%29.97 "HgN/A
4:00 PM76 °FMild.N/A62%29.98 "HgN/A
3:00 PM75 °FMild.N/A61%30.00 "HgN/A
1:00 PM77 °FWarm.N/A57%30.05 "HgN/A
12:00 PM78 °FWarm.N/A54%30.07 "HgN/A
Weather by CustomWeather, © 2014

See weather overviewHow to use our weather pages